This is the latest recevied weather packets stored in our database for station/object RN1M-13. If no packets are shown the sender has not sent any weather packets the latest 10 day(s).
| Time | Temp. | Humidity | Pressure | Rain* | Wind** | Luminosity | Snow |
|---|---|---|---|---|---|---|---|
| 1787832394 | 21.67° C | 100% | 1024.8 hPa | - | - | - | - |
| 1787831496 | 22.22° C | 100% | 1024.8 hPa | - | - | - | - |
| 1787830599 | 22.22° C | 100% | 1024.8 hPa | - | - | - | - |
| 1787829699 | 22.78° C | 100% | 1024.8 hPa | - | - | - | - |
| 1787828799 | 21.67° C | 100% | 1024.9 hPa | - | - | - | - |
| 1787827899 | 22.22° C | 100% | 1024.9 hPa | - | - | - | - |
| 1787826999 | 21.67° C | 100% | 1025 hPa | - | - | - | - |
| 1787826099 | 21.11° C | 100% | 1025.3 hPa | - | - | - | - |
| 1787825199 | 21.67° C | 100% | 1025.2 hPa | - | - | - | - |
| 1787824299 | 22.22° C | 100% | 1025.1 hPa | - | - | - | - |
| 1787823399 | 21.11° C | 100% | 1025.3 hPa | - | - | - | - |
| 1787822499 | 21.11° C | 100% | 1025.5 hPa | - | - | - | - |
| 1787821599 | 21.11° C | 100% | 1025.5 hPa | - | - | - | - |
| 1787820701 | 20.56° C | 100% | 1025.5 hPa | - | - | - | - |
| 1787819803 | 21.11° C | 100% | 1025.3 hPa | - | - | - | - |
| 1787818903 | 20.56° C | 100% | 1025.6 hPa | - | - | - | - |
| 1787818003 | 21.11° C | 100% | 1025.5 hPa | - | - | - | - |
| 1787817103 | 20.56° C | 100% | 1025.5 hPa | - | - | - | - |
| 1787815303 | 20° C | 100% | 1025.9 hPa | - | - | - | - |
| 1787814403 | 20.56° C | 100% | 1026.2 hPa | - | - | - | - |
| 1787813503 | 20.56° C | 100% | 1026.3 hPa | - | - | - | - |
| 1787812602 | 20° C | 100% | 1026.5 hPa | - | - | - | - |
| 1787811709 | 20.56° C | 100% | 1027.2 hPa | - | - | - | - |
| 1787810802 | 20° C | 100% | 1028.5 hPa | - | - | - | - |
| 1787809904 | 19.44° C | 100% | 1029.1 hPa | - | - | - | - |
* Rain since midnight (hover to see other rain measurements)
** Current wind speed in m/s (hover to see current wind gust speed)